Regional Weather Roundup
Issued by NWS

Home | Current Version | Previous Version | Graphics & Text | Print | Product List | Glossary On
Versions: 1 2 3 4 5 6 7 8 9 10 11 12 13 14 15 16 17 18 19 20 21 22 23 24 25 26 27 28 29 30 31 32 33 34 35 36 37 38 39 40 41 42 43 44 45 46 47 48 49 50
000
ASUS43 KLOT 081858
RWRIL

ILLINOIS REGIONAL WEATHER ROUNDUP
NATIONAL WEATHER SERVICE CHICAGO/ROMEOVILLE IL
100 PM CST MON FEB 08 2016

NOTE: "FAIR" INDICATES FEW OR NO CLOUDS BELOW 12,000 FEET WITH NO
SIGNIFICANT WEATHER AND/OR OBSTRUCTIONS TO VISIBILITY.

* THESE STATIONS ARE NOT UNDER NWS QUALITY CONTROL. THEY ALSO MAY NOT
  REPORT WEATHER SUCH AS PRECIPITATION OR FOG.

ILZ001-002-007-009-015-016-024-082000-
NORTHWEST ILLINOIS

CITY           SKY/WX    TMP DP  RH WIND       PRES   REMARKS
MOLINE         LGT SNOW  21  15  78 W15       29.80S VSB 1   WCI   8
$$

ILZ003-004-008-010-011-017-018-082000-
NORTH CENTRAL ILLINOIS

CITY           SKY/WX    TMP DP  RH WIND       PRES   REMARKS
ROCKFORD       NOT AVBL
$$

ILZ005-006-012>014-019>023-082000-
NORTHEAST ILLINOIS

CITY           SKY/WX    TMP DP  RH WIND       PRES   REMARKS
CHICAGO-OHARE  CLOUDY    27  22  81 W10       29.66S WCI  17
CHICAGO-MIDWAY NOT AVBL
AURORA         NOT AVBL
WAUKEGAN       CLOUDY    29  23  78 W10       29.64S WCI  20
DUPAGE AIRPORT NOT AVBL
WHEELING       NOT AVBL
$$

LMZ740>746-082000-
SOUTHERN LAKE MICHIGAN

STATION/POSITION SKY/WX   TEMP    WIND        PRES    VSBY  WAVE
                          AIR SEA DIR/SP/G                  HT/PER
                          (F)     (DEG/KT/KT) (MB)    (MI)  (FT/S)
HARRISON CRIB              30     290/ 17/ 19   N/A
BURNHAM HARBOR             30     270/ 11/ 15   N/A
CALUMET HARBOR             31     260/  7/ 13 1004.1S
BURNS HARBOR               31     270/ 13/ 16 1005.1S
MICHIGAN CITY              30     240/ 18/ 19   N/A
$$

ILZ025>027-034>036-040-047-049-050-058-095>099-082000-
WEST-CENTRAL ILLINOIS

CITY           SKY/WX    TMP DP  RH WIND       PRES   REMARKS
QUINCY         LGT SNOW  19  12  73 NW25G31   29.88S WCI   2
$$

ILZ028>032-037-038-041>044-048-051>054-059>061-082000-
CENTRAL ILLINOIS

CITY           SKY/WX    TMP DP  RH WIND       PRES   REMARKS
DECATUR        LGT SNOW  25  16  68 NW15G28   29.78S WCI  12
PEORIA         NOT AVBL
SPRINGFIELD    FLURRIES  23  15  71 W15G24    29.82S WCI  10
TAYLORVILLE    NOT AVBL
$$

ILZ033-039-045-046-055>057-062-063-082000-
EAST-CENTRAL ILLINOIS

CITY           SKY/WX    TMP DP  RH WIND       PRES   REMARKS
$$

ILZ079-100>102-082000-
SOUTHWEST ILLINOIS

CITY           SKY/WX    TMP DP  RH WIND       PRES   REMARKS
ALTON          LGT SNOW  25  18  74 W25       29.86F WCI   9
$$

ILZ064>066-069>071-074>076-080>082-084>086-088>090-092>094-082000-
SOUTH-CENTRAL ILLINOIS

CITY           SKY/WX    TMP DP  RH WIND       PRES   REMARKS
CARBONDALE     FLURRIES  32  17  54 NW13G24   29.85F WCI  22
$$

ILZ067-068-072-073-078-083-087-091-082000-
SOUTHEAST ILLINOIS

CITY           SKY/WX    TMP DP  RH WIND       PRES   REMARKS
LAWRENCEVILLE  LGT SNOW  29  24  82 NW22G31   29.78S WCI  15
$$

ABBREVIATIONS USED IN REMARKS
   TC - TEMPERATURE IN CELSIUS
  WCI - WIND CHILL INDEX
   HX - HEAT INDEX
  VSB - VISIBILITY
$$




USA.gov is the U.S. government's official web portal to all federal, state and local government web resources and services.